This demonstration page uses our WeatherBlox Daily Observations layout. Learn more.

Left ArrowRight Arrow

39.01783, -85.05884

Hourly Observations for August 1, 2021

Temp ( °F °C ) Dew Point ( °F °C ) Humidity (%) Winds ( mph kmh ) Pressure ( in mb ) Visibility ( mi km ) Precip ( " mm )
12:52 am 00:52 Hazy 63 17.2 58 14.4 84 84 NW 3 6 29.92 1013 5 8 N/A
1:52 am 01:52 Hazy 61 16.1 56 13.3 84 84 WNW 5 7 29.94 1014 6 10 N/A
2:52 am 02:52 Clear with Mist and Fog 60 15.6 56 13.3 86 86 W 6 9 29.93 1013 6 10 N/A
3:52 am 03:52 Clear with Mist and Fog 59 15 56 13.3 90 90 WSW 3 6 29.93 1014 6 10 N/A
4:52 am 04:52 Hazy 59 15 56 13.3 90 90 WNW 7 11 29.92 1013 6 10 N/A
5:52 am 05:52 Clear with Mist and Fog 58 14.4 55 12.8 90 90 WSW 3 6 29.92 1013 6 10 N/A
6:52 am 06:52 Partly Cloudy with Mist and Fog 58 14.4 55 12.8 90 90 NW 5 7 29.93 1014 5 8 N/A
7:52 am 07:52 Partly Cloudy with Mist and Fog 61 16.1 57 13.9 87 87 N N/A 29.94 1014 4 6 N/A
8:52 am 08:52 Hazy 65 18.3 59 15 81 81 WNW 7 11 29.96 1014 5 8 N/A
9:52 am 09:52 Hazy 70 21.1 62 16.7 76 76 W 5 7 29.96 1015 6 10 N/A
10:52 am 10:52 Sunny 74 23.3 63 17.2 69 69 WSW 8 13 29.96 1014 8 13 N/A
11:52 am 11:52 Partly Cloudy 77 25 62 16.7 60 60 WNW 10 17 29.96 1015 8 13 N/A
12:52 pm 12:52 Partly Cloudy 78 25.6 62 16.7 58 58 WNW 15 24 29.96 1014 8 13 N/A
1:52 pm 13:52 Partly Cloudy 80 26.7 61 16.1 52 52 WNW 13 20 29.94 1014 8 13 N/A
2:52 pm 14:52 Mostly Cloudy 81 27.2 63 17.2 54 54 W 14 22 29.93 1014 7 11 N/A
3:34 pm 15:34 Cloudy with Haze 76 24.4 58 14.4 54 54 N 17 28 29.92 1013 5 8 N/A
3:52 pm 15:52 Cloudy with Rain 70 21.1 63 17.2 79 79 N 13 20 29.95 1014 3 5 0.00 0.00
4:52 pm 16:52 Hazy 79 26.1 64 17.8 60 60 NNW 10 17 29.95 1014 5 8 0.02 0.51
5:52 pm 17:52 Hazy 74 23.3 63 17.2 69 69 NW 7 11 29.96 1014 6 10 0.12 3.05
6:52 pm 18:52 Mostly Cloudy 76 24.4 62 16.7 62 62 NW 6 9 29.96 1015 7 11 N/A
7:52 pm 19:52 Mostly Cloudy 75 23.9 58 14.4 55 55 NNW 9 15 29.96 1015 8 13 N/A
8:52 pm 20:52 Partly Cloudy 72 22.2 55 12.8 55 55 NNW 7 11 29.98 1015 8 13 N/A
9:52 pm 21:52 Partly Cloudy 70 21.1 54 12.2 57 57 NNW 6 9 30.00 1016 9 14 N/A
10:52 pm 22:52 Clear 68 20 54 12.2 61 61 NNW 7 11 30.03 1017 9 14 N/A
11:52 pm 23:52 Clear 67 19.4 54 12.2 63 63 NNW 9 15 30.04 1017 10 16 N/A

Powered by AerisWeather